Weather Roundup
Issued by NWS Chicago, IL

Home | Current Version | Previous Version | Graphics & Text | Print | Product List | Glossary On
Versions: 1 2 3 4 5 6 7 8 9 10 11 12 13 14 15 16 17 18 19 20 21 22 23 24 25 26 27 28 29 30 31 32 33 34 35 36 37 38 39 40 41 42 43 44 45 46 47 48 49 50
000
NZUS59 KLOT 270408
HRRLOT

CHICAGO AREA WEATHER ROUNDUP
NATIONAL WEATHER SERVICE CHICAGO/ROMEOVILLE IL
1100 PM CDT THU APR 26 2018

NOTE: "FAIR" INDICATES FEW OR NO CLOUDS BELOW 12,000 FEET WITH NO
SIGNIFICANT WEATHER AND/OR OBSTRUCTIONS TO VISIBILITY.

* THESE STATIONS ARE NOT UNDER NWS QUALITY CONTROL. THEY ALSO MAY NOT
  REPORT WEATHER SUCH AS PRECIPITATION OR FOG.

ILZ005-006-012>014-019>023-270500-
NORTHEAST ILLINOIS

CITY           SKY/WX    TMP DP  RH WIND       PRES   REMARKS
OHARE          MOCLDY    54  31  41 S6        29.80F
MIDWAY           N/A     57  30  35 S7        29.81F
AURORA           N/A     52  32  46 S8        29.80F
LANSING*         N/A     49  29  46 S5        29.83F
JOLIET*          N/A     48  40  72 CALM      29.82F
WAUKEGAN         N/A     48  29  47 SW3       29.78F
DUPAGE AIRPORT   N/A     50  34  54 S7        29.79F
WHEELING         N/A     50  29  44 S5        29.81F
KANKAKEE*        N/A     50  34  54 SW3       29.84F
MORRIS*          N/A     51  31  45 S6        29.81F
LEWIS AIRPORT*   N/A     51  34  52 S9        29.81F
NORTHERLY ISL    N/A     55  25  31 S6          N/A
$$

WIZ051-052-058>065-066-070>072-270500-
SOUTHEAST WISCONSIN

CITY           SKY/WX    TMP DP  RH WIND       PRES   REMARKS
MILWAUKEE      CLOUDY    52  28  39 S7        29.77F
KENOSHA*       CLOUDY    52  29  41 S8        29.78F
RACINE*        MOCLDY    51  28  41 S7        29.79F
BURLINGTON       N/A     51  32  48 CALM      29.77F
WAUKESHA         N/A     52  28  40 S5        29.78S
WEST BEND        N/A     50  30  46 SW3       29.75F
$$

INZ001>003-010>013-019-020-270500-
NORTHWEST INDIANA

CITY           SKY/WX    TMP DP  RH WIND       PRES   REMARKS
GARY*            N/A     54  18  24 S6        29.83F
MICHIGAN CITY* NOT AVBL
RENSSELAER*    NOT AVBL
$$

LMZ740>746-270500-
SOUTHERN LAKE MICHIGAN

STATION/POSITION TIME  SKY/WX   TEMP WIND        PRES    VSBY
                                AIR  DIR/SP/G
                 (UTC)          (F)  (DEG/KT/KT) (MB)    (MI)
HARRISON CRIB    0340            53  180/ 13/ 13   N/A
BURNHAM HARBOR   0400            55  180/  7       N/A
CALUMET HARBOR   0342            56  170/  6/  8 1009.3F
BURNS HARBOR     0340            55  160/  8/ 12 1010.8F
MICHIGAN CITY    0340            54  130/ 10/ 11   N/A
$$

ABBREVIATIONS USED IN REMARKS
   TC - TEMPERATURE IN CELSIUS
  WCI - WIND CHILL INDEX
   HX - HEAT INDEX
  VSB - VISIBILITY
$$




USA.gov is the U.S. government's official web portal to all federal, state and local government web resources and services.